Location: Spangle
(47.4302°N, 117.3779°W)
Time: 16:25:18
(UTC+00:00)

HTV-X1 - Visible Passes

Search period start: 13 May 2026 00:00
Search period end: 23 May 2026 00:00
Orbit: 372 x 383 km, 51.6° (Epoch: 13 May)

Date Brightness Start Highest point End Pass type
(mag) Time Alt. Az. Time Alt. Az. Time Alt. Az.
13 May ? 05:02:19 10° W 05:05:18 47° NNW 05:08:18 10° ENE visible
13 May ? 06:38:40 10° WNW 06:41:35 37° N 06:41:36 37° N visible
14 May ? 04:01:16 10° WSW 04:04:21 71° NNW 04:07:25 10° ENE visible
14 May ? 05:37:38 10° WNW 05:40:31 35° N 05:42:57 13° ENE visible
14 May ? 07:13:42 10° WNW 07:15:03 23° NW 07:15:03 23° NW visible
15 May ? 04:36:31 10° W 04:39:28 40° N 04:42:24 10° ENE visible
15 May ? 06:12:47 10° WNW 06:15:44 41° N 06:16:19 36° NE visible
16 May ? 05:11:46 10° WNW 05:14:39 35° N 05:17:32 10° ENE visible
16 May ? 06:47:44 10° WNW 06:49:37 33° WNW 06:49:37 33° WNW visible
17 May ? 04:10:39 10° WNW 04:13:32 36° N 04:16:27 10° ENE visible
17 May ? 05:46:47 10° WNW 05:49:48 48° NNE 05:50:47 33° ENE visible
17 May ? 07:22:45 10° WNW 07:22:52 11° WNW 07:22:52 11° WNW visible
18 May ? 04:45:47 10° WNW 04:48:43 37° N 04:51:37 10° ENE visible
18 May ? 06:21:41 10° WNW 06:24:01 47° WNW 06:24:01 47° WNW visible
19 May ? 05:20:42 10° WNW 05:23:46 60° NNE 05:25:10 28° E visible
19 May ? 06:56:48 10° W 06:57:14 13° W 06:57:14 13° W visible
20 May ? 04:19:41 10° WNW 04:22:40 42° NNE 04:25:38 10° E visible
20 May ? 05:55:36 10° WNW 05:58:23 52° SW 05:58:23 52° SW visible
21 May ? 04:54:32 10° WNW 04:57:37 81° NNE 04:59:31 21° ESE visible
21 May ? 06:30:57 10° W 06:31:36 13° WSW 06:31:36 13° WSW visible
22 May ? 05:29:28 10° WNW 05:32:20 36° SW 05:32:45 34° SSW visible
